Weather WX

World > North America > United States > Mississippi

Prentiss, Mississippi Regional Weather

Lat: 31.60N, Lon: 89.87W
Wx Zone: MSZ064
Warning FLW WEATHER ALERT - (More Info. Click Here) Warning
Feedback

Prentiss, MS Regional Weather

Expires:201906160200;;135225
ASUS44 KJAN 160110
RWRMS 

MISSISSIPPI HOURLY WEATHER ROUNDUP
NATIONAL WEATHER SERVICE JACKSON MS
800 PM CDT SAT JUN 15 2019

NOTE: "FAIR: INDICATES FEW OR NO CLOUDS BELOW 12,000 FEET WITH NO
SIGNIFICANT WEATHER AND/OR OBSTRUCTIONS TO VISIBILITY.


MSZ059>079-160200-
SOUTH MISSISSIPPI
  
CITY           SKY/WX    TMP DP  RH WIND       PRES   REMARKS
BROOKHAVEN     FAIR      81  73  78 NE7       29.99F                  
HATTIESBURG    FAIR      82  73  74 SE6       30.00S                  
LAUREL         PTCLDY    81  73  77 S7        29.99F                  
MCCOMB         FAIR      76  66  71 W5        29.99F                  
NATCHEZ        FAIR      78  72  81 S6        29.96F                  
PINE BELT      FAIR      81  74  79 SE6       30.01S                  
$$


SKY/WX - Weather  TMP - Temperature  DP - Dew Point  RH - Relative Humidity
WIND - Wind Direction/Speed PRES - Barometric Pressure VSB - Visibility
WCI - Wind Chill Index E13G22 Wind - East Wind 13 mph/Gusts of 22 mph